Starlink 31809

operational
NORAD ID: 59743 Int'l Des: 2024-090 Owner: SPXS Country: US Constellation: starlink
LEOCIRCULAR

Starlink 31809について

説明を読み込み中...

リアルタイム位置

3D地球を読み込み中...

次回通過

高度履歴

Altitude vs Time

uPlot chart will show altitude changes over time

軌道要素

1 59743U 24090P 25353.15081784 -.00000688 00000-0 -15467-4 0 9996
2 59743 43.0004 271.3406 0000910 277.3870 82.6878 15.27593155 91202
Epoch: Dec 19, 2025 • Age: 27 hours

現在のステータス

高度 482.1 km
速度 7.63 km/s
衛星直下点 6.07°N, 87.44°E
打ち上げ日 May 13, 2024
運用期間 1.6 years
タイプ internet

技術仕様

分類 Payload
質量 730.00 kg
乾燥質量 700.00 kg
総質量 730.00 kg
長さ 0.30 m
直径 4.10 m
スパン 29.00 m
形状 Box + pan
製造者 SPXS
バスタイプ Starlink V2M
フェーズステータス In Orbit
所有者/国 SPXS/US

大規模コンステレーション

Loading constellations...